sat.trackr.live / text

‹ back to catalog

STARLINK-5642

NORAD 55430 · 2023-014AR

PAYLOAD ACTIVE UNKNOWN

§ Identity

Operator
Country
US
Launch date
2023-01-31
Launch site
AFWTR
Launch vehicle
Mass (kg)
RCS (m²)

Purposes: comms

External: N2YO · Heavens-Above · Gunter

§ Orbital elements

Epoch: 2026-09-20T13:58:06.126240Z

Period
96.11 min
Inclination
70.0001°
Eccentricity
0.0003775
Mean motion
14.98330967 rev/d
Perigee alt
569.4 km
Apogee alt
574.7 km
Semi-major
6,950.2 km
B*
5.0055e-6
RAAN
332.9851°
Arg perigee
268.5273°
Mean anomaly
91.5454°
Rev number
20,026

§ Raw data

STARLINK-56421 55430U 23014AR  26263.58201535 -.00000033  00000+0  50055-5 0  99912 55430  70.0001 332.9851 0003775 268.5273  91.5454 14.98330967200261

JSON: /api/v1/satellites/55430 · /tle

For live sub-satellite position, see the globe view (requires WebGL).

§ Visibility from observer

Set your observer location to see the next 7 days of passes ≥ 10°. The values pass through the URL so the page stays shareable.

No JS? Fill the form by hand. The geolocation button needs JavaScript.